Portada
METAR-TAF:

METAR-TAF

Aeropuertos :

Grove, Oklahoma, Estados Unidos

latitud: 36-36-19N, longitud: 094-44-19W, altitud: 254 m

Observación

El informe se hizo hace 14 minutos, a las 03:35 UTC
Viento 6 kt del sur-sureste
Temperatura 22°C
Humedad 73%
Presión 1017 hPa
Cielo despejado

METAR: KGMJ 030335Z AUTO 16006KT CLR 22/17 A3003 RMK AO2 PWINO

Hora: 22:49 (03:49 UTC)


TAF: falta

Observaciones y pronósticos meteorológicos de más de 4000 aeropuertos (mensajes METAR y TAF).

Los puntos amarillos y rojos representan las estaciones disponibles.

Ponga el ratón en el punto deseado para ver el nombre de la estación.

Haga clic para ver las observaciones y los pronósticos meteorológicos.

Para cambiar el mapa : haga clic en los botones verdes con una cruz de color negro para hacer un zoom, en el botón verde con un guión para alejar o en las flechas verdes para mapas adyacentes.


METAR-TAF: